Terminal Aerodrome Forecast
Issued by NWS

Home | Current Version | Previous Version | Text Only | Print | Product List | Glossary On
Versions: 1 2 3 4 5 6 7 8 9 10 11 12 13 14 15 16 17 18 19 20 21 22 23 24 25 26 27 28 29 30 31 32 33 34
000
FTUS41 KOKX 041612 AAB
TAFTEB
TAF AMD
KTEB 041612Z 0416/0512 07009G17KT 4SM BR OVC015
     FM041800 06009KT 4SM -RA OVC015
     FM042100 06009KT 4SM -RA BR OVC009
     FM042300 06009G15KT 4SM -DZ BR BKN008=

USA.gov is the U.S. government's official web portal to all federal, state and local government web resources and services.